(144081) = 2001 LB1 = 2004 BR50

Discovered at Socorro on 2004-01-21 by LINEAR.

Orbit

Orbit type: Main Belt

Note: WebGL enabled browser required.

epoch2023-09-13.0
epoch JD2460200.5
perihelion date2023-09-01.14694
perihelion JD2460188.64694
argument of perihelion (°)82.80264
ascending node (°)151.60994
inclination (°)2.74169
eccentricity0.1423497
perihelion distance (AU)2.0641594
Tisserand w.r.t. Jupiter3.5
ΔV w.r.t. Earth (km/sec)9.0
semimajor axis (AU)2.4067611
mean anomaly (°)3.12885
mean daily motion (°/day)0.26396990
aphelion distance (AU)2.749
period (years)3.73
P-vector [x]-0.58140434
P-vector [y]-0.76408311
P-vector [z]-0.27954605
Q-vector [x]0.81329683
Q-vector [y]-0.53619155
Q-vector [z]-0.22593558
absolute magnitude16.41
phase slope0.15
uncertainty0
referenceMPO 777837
observations used793
oppositions16
arc length (days)10529
first opposition used1994
last opposition used2023
residual rms (arc-secs)0.75
perturbers coarse indicatorM-v
perturbers precise indicator003Ek
first observation date used1994-08-11.0
last observation date used2023-06-09.0
computer nameMPCLINUX
JD of orbit computation2456966.897051
perihelion JD uncertainty (days)7.0647E-05
argument of perihelion uncertainty (°)8.8636E-05
ascending node uncertainty (°)8.6132E-05
inclination uncertainty (°)5.1739E-06
eccentricity uncertainty 3.8047E-08
perihelion distance uncertainty (AU)9.2044E-08
Minimum Orbit Intersection Distances (in AU)
for orbit epoch: 2460200.5, reference: E2023-VP5
Mercury1.60508
Venus1.34011
Earth1.0542
Mars0.48958
Jupiter2.24006
Saturn6.34316
Uranus16.1167
Neptune27.1093

Observations

808 total observations over interval: 1994 08 11.25903 – 2023 06 09.217768
These data are available for download (format description).

Date (UT) J2000 RA J2000 Dec Magn Location Ref
1994 08 11.25903 22 37 03.44 -08 32 29.8   809 – European Southern Observatory, La Silla MPS 100880
1994 08 11.27083 22 37 02.82 -08 32 34.1   809 – European Southern Observatory, La Silla MPS 100880
1994 08 11.28333 22 37 02.30 -08 32 37.9   809 – European Southern Observatory, La Silla MPS 100880
2001 06 13.31435 16 54 05.65 -17 27 39.4 18.5   704 – Lincoln Laboratory ETS, New Mexico MPS 31820
2001 06 13.32485 16 54 05.14 -17 27 38.6 18.5   704 – Lincoln Laboratory ETS, New Mexico MPS 31820
2001 06 13.33543 16 54 04.31 -17 27 38.0 18.9   704 – Lincoln Laboratory ETS, New Mexico MPS 31820
2001 06 13.34599 16 54 03.81 -17 27 38.6 18.9   704 – Lincoln Laboratory ETS, New Mexico MPS 31820
2001 06 15.23994 16 52 21.24 -17 26 53.0 18.5   704 – Lincoln Laboratory ETS, New Mexico MPS 31820
2001 06 15.25305 16 52 20.44 -17 26 52.6 18.7   704 – Lincoln Laboratory ETS, New Mexico MPS 31820
2001 06 15.26623 16 52 19.72 -17 26 53.4 18.8   704 – Lincoln Laboratory ETS, New Mexico MPS 31820
2001 06 15.27943 16 52 18.96 -17 26 52.3 18.7   704 – Lincoln Laboratory ETS, New Mexico MPS 31820
2004 01 21.30945 08 58 04.92 +15 16 19.5 19.2   704 – Lincoln Laboratory ETS, New Mexico MPS 97921
2004 01 21.32266 08 58 04.13 +15 16 23.3 19.6   704 – Lincoln Laboratory ETS, New Mexico MPS 97921
2004 01 21.34870 08 58 02.60 +15 16 31.0 20.0   704 – Lincoln Laboratory ETS, New Mexico MPS 97921
2004 01 24.33546 08 55 09.68 +15 31 13.3 19.4   704 – Lincoln Laboratory ETS, New Mexico MPS 97921
2004 01 24.34808 08 55 08.88 +15 31 18.6 19.9   704 – Lincoln Laboratory ETS, New Mexico MPS 97921
2004 01 24.36072 08 55 08.14 +15 31 21.5 20.0   704 – Lincoln Laboratory ETS, New Mexico MPS 97921
2004 01 24.37332 08 55 07.35 +15 31 26.4 19.5   704 – Lincoln Laboratory ETS, New Mexico MPS 97921
2004 01 24.38581 08 55 06.53 +15 31 27.7 19.7   704 – Lincoln Laboratory ETS, New Mexico MPS 97921
2004 01 26.27916 08 53 13.96 +15 41 03.1 19.5 R 699 – Lowell Observatory-LONEOS MPS 97921
2004 01 26.31004 08 53 12.05 +15 41 12.8   699 – Lowell Observatory-LONEOS MPS 97921
2004 01 26.33004 08 53 10.75 +15 41 19.9   699 – Lowell Observatory-LONEOS MPS 97921
2004 01 26.35004 08 53 09.44 +15 41 26.1   699 – Lowell Observatory-LONEOS MPS 97921
2004 01 30.21858 08 49 13.66 +16 01 26.4 19.6 V 691 – Steward Observatory, Kitt Peak-Spacewatch MPS 97921
2004 01 30.24687 08 49 11.85 +16 01 35.5 19.6 V 691 – Steward Observatory, Kitt Peak-Spacewatch MPS 97921
2004 01 30.27377 08 49 10.11 +16 01 43.6 19.4   704 – Lincoln Laboratory ETS, New Mexico MPS 97921
2004 01 30.27496 08 49 10.05 +16 01 44.4 19.5 V 691 – Steward Observatory, Kitt Peak-Spacewatch MPS 97921
2004 01 30.28633 08 49 09.23 +16 01 48.8 19.7   704 – Lincoln Laboratory ETS, New Mexico MPS 97921
2004 01 30.29901 08 49 08.46 +16 01 52.0 19.5   704 – Lincoln Laboratory ETS, New Mexico MPS 97921
2004 01 30.32435 08 49 06.87 +16 02 00.5 19.4   704 – Lincoln Laboratory ETS, New Mexico MPS 97921
2004 02 14.13632 08 34 15.94 +17 17 38.6 19.9 V 691 – Steward Observatory, Kitt Peak-Spacewatch MPS 100125
2004 02 14.16334 08 34 14.40 +17 17 46.6 19.9 V 691 – Steward Observatory, Kitt Peak-Spacewatch MPS 100125
2004 02 14.19047 08 34 12.74 +17 17 54.7 19.5 V 691 – Steward Observatory, Kitt Peak-Spacewatch MPS 100125
2004 02 16.22102 08 32 21.63 +17 27 28.7 19.5   704 – Lincoln Laboratory ETS, New Mexico MPS 100125
2004 02 16.23295 08 32 20.97 +17 27 33.0 20.1   704 – Lincoln Laboratory ETS, New Mexico MPS 100125
2004 02 16.24467 08 32 20.29 +17 27 37.0 20.0   704 – Lincoln Laboratory ETS, New Mexico MPS 100125
2004 02 16.25657 08 32 19.69 +17 27 41.3 19.3   704 – Lincoln Laboratory ETS, New Mexico MPS 100125
2004 02 17.18043 08 31 30.65 +17 31 55.5 20.2   644 – Palomar Mountain/NEAT MPS 100125
2004 02 17.20054 08 31 29.58 +17 32 00.2 19.9   644 – Palomar Mountain/NEAT MPS 100125
2004 02 17.22133 08 31 28.50 +17 32 06.5 19.8   644 – Palomar Mountain/NEAT MPS 100125
2004 02 26.22110 08 24 31.84 +18 09 35.3 19.7   704 – Lincoln Laboratory ETS, New Mexico MPS 100125
2004 02 26.23242 08 24 31.37 +18 09 38.3 20.5   704 – Lincoln Laboratory ETS, New Mexico MPS 100125
2004 02 26.24367 08 24 30.88 +18 09 40.1 20.1   704 – Lincoln Laboratory ETS, New Mexico MPS 100125
2004 02 26.25505 08 24 30.41 +18 09 41.8 20.3   704 – Lincoln Laboratory ETS, New Mexico MPS 100125
2005 05 19.43459 20 42 39.06 -15 18 51.4 19.0 R G96 – Mt. Lemmon Survey MPS 137042
2005 05 19.43846 20 42 39.23 -15 18 50.5 19.2 R G96 – Mt. Lemmon Survey MPS 137042
2005 05 19.44233 20 42 39.39 -15 18 50.0 19.6 R G96 – Mt. Lemmon Survey MPS 137042
2005 05 19.44618 20 42 39.52 -15 18 48.7 19.3 R G96 – Mt. Lemmon Survey MPS 137042
2005 06 27.39858 20 47 50.42 -14 58 43.6 19.8 V 691 – Steward Observatory, Kitt Peak-Spacewatch MPS 137042
2005 06 27.41595 20 47 49.87 -14 58 46.3 19.8 V 691 – Steward Observatory, Kitt Peak-Spacewatch MPS 137042
2005 06 27.43332 20 47 49.34 -14 58 48.8 19.8 V 691 – Steward Observatory, Kitt Peak-Spacewatch MPS 137042
2005 06 28.29029 20 47 24.70 -15 00 52.8 19.3   644 – Palomar Mountain/NEAT MPS 137042
2005 06 28.32138 20 47 23.70 -15 00 57.9 19.0   644 – Palomar Mountain/NEAT MPS 137042
2005 06 28.36311 20 47 22.36 -15 01 04.3 19.1   644 – Palomar Mountain/NEAT MPS 137042
2005 06 29.36599 20 46 51.36 -15 03 39.5 19.1 R 699 – Lowell Observatory-LONEOS MPS 137042
2005 06 29.38792 20 46 50.53 -15 03 41.6   699 – Lowell Observatory-LONEOS MPS 137042
2005 06 29.40989 20 46 49.79 -15 03 45.6   699 – Lowell Observatory-LONEOS MPS 137042
2005 06 29.43183 20 46 49.10 -15 03 47.4   699 – Lowell Observatory-LONEOS MPS 137042
2005 07 04.37183 20 43 51.45 -15 18 35.6 19.1 V G96 – Mt. Lemmon Survey MPS 137451
2005 07 04.37980 20 43 51.09 -15 18 37.3 19.3 V G96 – Mt. Lemmon Survey MPS 137451
2005 07 04.38774 20 43 50.77 -15 18 38.8 19.3 V G96 – Mt. Lemmon Survey MPS 137451
2005 07 04.39571 20 43 50.41 -15 18 40.5 19.3 V G96 – Mt. Lemmon Survey MPS 137451
2005 07 10.33188 20 39 28.45 -15 40 26.5 19.4 V 691 – Steward Observatory, Kitt Peak-Spacewatch MPS 137963
2005 07 10.34931 20 39 27.56 -15 40 30.7 19.4 V 691 – Steward Observatory, Kitt Peak-Spacewatch MPS 137963
2005 07 10.37018 20 39 26.50 -15 40 35.8 19.4 V 691 – Steward Observatory, Kitt Peak-Spacewatch MPS 137963
2005 07 12.32184 20 37 50.70 -15 48 34.2 19.3 V 703 – Catalina Sky Survey MPS 137963
2005 07 12.32840 20 37 50.34 -15 48 35.1 19.6 V 703 – Catalina Sky Survey MPS 137963
2005 07 12.33498 20 37 49.98 -15 48 37.9 19.3 V 703 – Catalina Sky Survey MPS 137963
2005 07 12.34153 20 37 49.58 -15 48 39.3 19.4 V 703 – Catalina Sky Survey MPS 137963
2005 07 15.38362 20 35 12.19 -16 01 43.9 19.1 V G96 – Mt. Lemmon Survey MPS 137963
2005 07 15.39325 20 35 11.68 -16 01 46.4 19.0 V G96 – Mt. Lemmon Survey MPS 137963
2005 07 15.40292 20 35 11.11 -16 01 49.0 19.1 V G96 – Mt. Lemmon Survey MPS 137963
2005 07 15.41258 20 35 10.57 -16 01 51.4 19.0 V G96 – Mt. Lemmon Survey MPS 137963
2005 07 30.56434 20 20 56.97 -17 13 11.7 18.9 V E12 – Siding Spring Survey MPS 138885
2005 07 30.57416 20 20 56.36 -17 13 14.7 18.8 V E12 – Siding Spring Survey MPS 138885
2005 07 30.58391 20 20 55.82 -17 13 16.8 18.8 V E12 – Siding Spring Survey MPS 138885
2005 07 30.59368 20 20 55.28 -17 13 20.0 19.1 V E12 – Siding Spring Survey MPS 138886
2005 08 06.21079 20 14 53.48 -17 44 31.9 19.0   704 – Lincoln Laboratory ETS, New Mexico MPS 139323
2005 08 06.22262 20 14 52.85 -17 44 35.0 19.7   704 – Lincoln Laboratory ETS, New Mexico MPS 139323
2005 08 06.23448 20 14 52.21 -17 44 37.7 19.5   704 – Lincoln Laboratory ETS, New Mexico MPS 139323
2005 08 06.24632 20 14 51.56 -17 44 40.4 19.9   704 – Lincoln Laboratory ETS, New Mexico MPS 139323
2005 08 06.25809 20 14 50.84 -17 44 44.1 19.7   704 – Lincoln Laboratory ETS, New Mexico MPS 139323
2005 09 29.11571 20 06 20.55 -19 40 53.0 19.6 V G96 – Mt. Lemmon Survey MPS 142650
2005 09 29.12314 20 06 20.80 -19 40 54.0 20.5 V G96 – Mt. Lemmon Survey MPS 142650
2005 09 29.13054 20 06 21.06 -19 40 53.5 20.4 V G96 – Mt. Lemmon Survey MPS 142650
2005 09 29.13802 20 06 21.34 -19 40 53.3 20.4 V G96 – Mt. Lemmon Survey MPS 142650
2006 11 12.31999 03 44 46.10 +15 28 31.8 19.6 V G96 – Mt. Lemmon Survey MPS 186965
